Theta_e
309 309 309 308 308 307 307 307 306 305 304 303 302 303 303 304 305 304 307 309 303 300 302 301 300 299 298 298 295 299 297 297 295 292 291 293 293 295 295 297 296 298 296 294 295 292 290 308 307 301 309 310 308 308
309 309 308 308 307 307 307 306 304 304 303 303 303 303 303 303 303 302 302 308 306 298 299 303 303 304 303 302 299 301 298 297 299 295 295 296 294 296 297 292 301 294 298 297 299 297 312 313 313 313 311 307 309 308
310 309 308 308 307 306 306 304 304 303 303 303 303 303 303 303 302 302 304 305 303 298 298 299 298 303 304 305 306 296 298 301 299 301 296 296 293 297 292 294 297 300 304 299 301 304 308 311 313 313 315 311 309 309
309 309 308 307 306 305 304 303 303 303 303 303 302 303 303 303 304 302 304 305 302 298 292 297 304 300 303 304 303 303 302 305 303 301 296 293 290 297 292 294 293 296 299 297 300 303 304 305 308 311 309 308 307 308
307 307 306 304 303 303 303 303 303 302 301 302 303 303 304 303 304 304 305 306 306 298 293 296 301 301 303 303 301 302 302 300 298 295 293 291 295 294 295 294 292 297 296 293 293 301 300 302 305 305 305 304 305 304
304 304 303 303 303 303 303 302 302 302 302 303 302 302 302 303 302 302 298 304 308 304 295 290 300 299 302 302 300 300 300 299 296 293 293 295 299 295 290 289 296 298 299 301 297 301 301 302 304 304 303 303 304 304
303 303 302 303 303 302 302 301 301 302 302 302 302 302 302 303 302 298 296 299 302 307 295 291 293 299 300 300 300 299 301 298 297 295 294 294 295 296 292 288 295 297 299 300 300 300 298 301 300 303 304 304 305 305
302 302 302 302 301 301 301 302 302 302 302 302 303 303 303 303 302 298 302 302 304 298 296 289 290 293 300 295 294 299 296 297 297 295 296 293 295 294 289 294 296 297 298 298 299 301 300 301 302 302 303 303 302 302
301 301 301 302 302 302 302 302 302 302 302 302 302 303 303 301 296 298 302 302 304 299 290 291 288 288 298 295 295 295 297 291 297 293 293 294 291 288 293 294 295 297 297 297 299 300 300 299 300 301 301 301 301 302
301 301 301 301 301 301 302 302 302 302 302 303 302 297 293 298 304 303 301 295 297 297 294 290 294 289 295 294 293 292 293 290 288 292 295 291 290 297 298 298 300 298 299 297 294 295 297 298 299 300 300 302 302 303
302 301 301 301 301 302 302 302 302 302 302 300 296 294 301 302 300 297 292 290 291 288 293 293 293 291 297 290 290 295 291 292 286 290 290 289 288 294 299 298 300 301 301 300 301 301 300 300 299 300 301 302 304 307
301 301 301 301 301 302 302 302 302 302 302 299 301 302 303 297 293 289 288 290 288 286 293 291 294 294 295 299 293 294 289 291 284 294 290 286 292 298 300 300 301 302 301 301 303 303 304 303 303 303 303 305 307 309
301 301 301 301 301 301 302 302 302 301 299 305 298 293 293 292 283 282 281 286 287 291 293 295 294 294 297 297 291 290 285 286 294 289 287 290 298 298 299 299 299 302 301 302 302 303 302 303 305 306 305 307 308 309
302 301 301 301 301 301 301 302 302 301 301 293 289 283 286 284 286 288 288 289 295 294 296 297 296 291 295 290 292 284 290 291 285 284 286 293 298 299 301 301 300 299 300 300 301 303 301 303 303 306 307 307 308 310
301 302 302 301 301 301 302 302 302 302 299 290 291 282 286 290 291 293 294 294 295 297 294 297 294 293 291 286 290 289 286 284 287 287 293 298 300 300 299 299 300 300 301 299 299 299 299 300 301 304 306 309 310 312
300 300 301 301 301 301 302 302 302 303 298 293 291 288 291 290 290 292 293 293 296 296 299 298 291 287 286 288 286 285 285 285 290 294 297 300 301 302 301 302 302 301 301 300 299 298 299 300 301 304 308 310 313 311
298 299 301 300 300 300 301 301 300 295 293 290 290 294 293 292 291 293 295 295 299 295 290 292 286 285 292 287 285 290 288 292 297 298 300 301 301 301 301 302 302 301 299 299 298 299 300 305 307 307 307 312 314 313
297 301 299 298 299 299 299 299 294 291 287 292 290 293 295 295 294 295 296 297 295 293 292 289 293 287 285 283 286 291 294 297 298 299 300 302 301 302 302 301 301 299 298 298 298 299 302 304 307 309 312 314 315 313
298 300 299 299 300 297 293 293 293 287 290 293 294 295 295 295 296 297 297 297 297 296 293 291 287 286 289 292 292 294 296 298 297 298 299 301 301 301 301 301 299 297 297 297 298 299 303 308 311 313 316 318 314 313
299 299 299 300 300 294 290 292 297 291 289 293 295 294 295 295 296 296 296 296 295 293 290 288 289 291 293 294 297 298 298 298 297 294 295 298 299 299 298 297 296 297 297 299 302 300 313 314 317 319 317 313 311 309
296 302 301 301 298 296 293 292 291 293 293 291 294 294 292 294 292 291 291 293 287 287 289 293 294 295 296 296 296 295 294 294 293 293 292 292 296 297 295 296 298 299 299 302 309 311 308 311 312 315 310 311 311 311
300 300 301 299 295 294 293 295 292 294 292 292 291 292 290 289 290 292 295 289 289 291 291 291 292 292 291 291 292 293 293 294 294 294 293 294 294 295 296 297 298 298 302 308 310 312 312 312 310 310 310 309 309 311
298 300 297 295 290 288 289 296 290 291 288 290 291 289 289 290 294 299 291 293 290 295 295 293 293 293 291 293 294 297 299 299 295 296 297 297 298 298 298 299 300 301 303 309 313 314 311 303 304 308 308 308 309 308
298 293 289 289 289 287 292 289 290 289 290 289 288 287 291 293 297 292 288 290 293 294 291 290 291 290 293 295 296 300 302 302 301 299 300 299 297 298 301 303 309 312 312 308 307 307 309 308 303 307 307 309 307 309
288 288 289 286 290 286 286 288 288 288 287 289 288 289 291 295 291 287 287 289 289 289 289 290 292 294 294 297 301 301 304 302 298 297 299 300 302 303 309 312 311 311 312 307 306 306 307 308 308 308 307 307 308 308
285 290 287 289 289 286 290 287 289 289 289 288 289 293 295 292 288 285 288 288 287 287 289 291 293 296 301 301 300 299 301 303 301 301 304 306 308 309 308 307 306 306 311 308 308 308 308 308 308 309 308 304 297 308
286 289 293 295 293 292 290 293 293 289 289 288 292 291 290 286 285 287 291 290 289 293 296 299 299 301 302 303 306 307 309 308 308 308 310 310 313 315 312 308 308 310 313 311 311 312 310 310 310 309 309 309 309 309
293 295 291 295 294 298 292 293 292 290 291 295 294 288 286 285 285 289 286 291 295 296 299 301 301 302 302 303 304 305 306 308 310 312 315 313 315 315 314 313 310 297 311 311 312 313 312 311 310 309 309 308 309 310
296 302 301 294 295 295 295 294 293 296 298 296 290 288 289 292 294 293 294 295 297 297 296 295 298 302 304 305 304 304 303 303 303 306 306 306 308 311 314 313 313 311 309 304 291 301 309 312 310 309 309 309 310 309
296 303 297 295 294 293 298 300 297 299 302 300 297 296 296 297 298 300 297 296 295 294 295 296 297 299 298 298 298 301 305 304 303 303 302 304 307 312 314 315 312 311 308 306 306 306 294 307 301 311 310 310 309 308
303 301 296 296 295 299 301 303 303 303 302 299 300 297 298 298 298 298 297 297 297 298 297 295 297 299 298 297 296 297 298 302 302 304 304 309 311 313 314 314 313 312 309 308 308 306 308 311 312 310 310 308 307 306
301 296 296 292 295 300 304 301 301 299 300 297 297 298 297 298 292 294 297 296 295 293 292 295 295 297 300 299 300 300 291 302 301 301 302 306 307 312 313 314 314 312 310 306 308 308 308 308 309 309 309 308 308 307
298 299 297 296 296 294 299 298 298 297 298 297 296 297 297 295 290 295 299 299 294 294 295 297 300 302 301 300 300 300 298 306 298 289 288 287 286 292 310 314 314 312 310 306 304 304 303 302 302 304 308 307 306 306
Wind_Speed
24 23 23 22 21 19 17 15 14 12 10 6 4 4 3 4 6 8 4 3 6 7 7 3 6 9 6 6 9 6 3 9 8 10 11 11 12 13 16 18 18 12 10 13 14 20 25 5 5 10 9 6 5 6
24 24 24 23 22 20 17 16 12 10 8 7 6 4 4 3 5 7 5 4 3 6 9 5 7 10 11 11 8 4 9 4 4 5 6 6 10 10 12 14 10 17 17 11 8 5 12 7 5 5 5 1 1 6
22 24 25 25 22 19 19 16 14 10 8 9 6 5 5 4 5 6 7 4 5 8 10 13 11 8 11 10 6 7 5 7 7 6 9 9 13 9 11 13 15 17 10 14 13 16 7 7 5 3 6 5 8 10
17 17 19 21 20 20 18 15 12 10 8 8 6 6 5 4 6 7 9 4 5 5 6 5 5 7 6 7 11 11 12 4 5 7 8 8 11 9 12 15 15 14 17 17 16 18 16 20 10 14 4 5 12 14
21 24 26 25 22 18 16 13 13 11 8 6 5 3 5 5 7 9 8 3 2 7 7 5 3 8 11 7 11 11 11 11 9 9 10 11 11 13 13 15 15 13 16 14 17 16 14 18 15 16 14 16 18 18
25 25 23 21 19 16 16 14 11 10 7 7 6 5 4 4 6 7 5 5 0 4 5 6 5 5 8 7 9 14 10 9 10 10 9 12 19 14 10 14 20 17 20 21 20 20 20 22 19 21 21 20 19 19
21 21 19 19 18 16 14 13 9 9 8 6 5 5 5 6 7 5 7 4 4 0 4 5 5 9 6 7 9 8 11 8 10 11 13 14 14 10 14 19 24 22 22 23 22 20 21 21 15 18 18 19 19 19
20 19 18 18 17 14 11 11 11 9 7 6 5 5 6 5 7 6 6 4 6 4 4 5 5 5 10 8 9 9 9 9 10 12 13 12 13 14 19 24 25 26 26 26 25 23 25 23 23 23 21 19 21 21
15 15 14 13 13 13 12 11 11 9 8 5 6 7 5 5 3 3 6 6 5 3 3 5 8 3 6 8 7 6 6 11 10 13 15 15 15 18 22 25 26 26 26 25 24 24 24 23 22 21 21 20 21 19
14 13 13 12 12 12 12 11 10 8 6 9 7 5 4 3 14 10 4 4 5 5 5 8 10 11 5 6 8 8 5 8 10 13 9 13 17 24 24 24 22 23 22 22 23 22 22 21 19 20 21 19 19 19
12 11 10 10 11 11 10 10 10 9 8 5 4 3 7 8 5 4 5 5 5 6 7 7 9 9 7 7 9 0 4 5 10 12 15 15 14 16 21 9 13 10 13 14 16 19 21 22 21 20 20 20 20 16
9 9 8 8 8 9 10 9 11 10 1 3 3 2 3 3 5 6 4 4 6 7 7 8 4 5 3 2 3 4 5 5 9 8 5 10 8 17 11 10 6 6 8 11 12 14 17 13 15 15 15 18 15 19
5 6 7 7 7 7 9 10 11 4 7 3 3 3 4 4 3 7 9 6 6 6 4 4 2 5 4 2 2 5 7 8 7 9 16 15 3 6 5 7 12 15 18 19 19 15 15 18 17 15 18 20 21 21
8 7 7 6 6 6 6 10 10 5 4 3 5 3 6 6 7 8 11 3 4 5 2 2 2 3 4 2 5 6 7 5 6 12 17 7 6 6 7 9 10 16 15 16 18 19 15 19 12 17 18 16 14 20
7 9 9 7 5 6 8 9 9 7 3 5 4 5 9 9 6 8 9 9 6 4 5 1 2 4 4 4 5 6 6 7 7 9 4 5 6 7 10 8 14 13 15 11 12 15 16 15 15 17 13 16 16 14
1 2 8 5 3 3 9 8 7 3 4 5 7 8 8 7 7 8 9 8 7 6 2 2 4 4 8 6 7 9 7 10 10 5 6 7 13 12 14 14 16 15 15 11 10 13 17 16 15 16 13 15 17 12
4 1 7 5 3 3 3 4 5 6 5 4 6 7 10 10 9 6 8 8 6 9 7 5 5 8 4 6 6 10 15 13 13 14 12 14 13 15 15 18 16 14 13 12 13 14 15 14 15 13 14 15 12 9
4 8 6 2 3 4 3 4 3 4 8 8 10 10 10 8 9 8 8 7 7 8 9 11 9 13 11 14 15 13 13 14 13 11 14 14 19 19 17 15 14 12 13 14 14 14 14 13 12 11 13 13 12 14
8 6 4 3 5 4 4 5 4 5 7 8 8 8 8 8 9 9 9 9 9 9 8 4 8 9 12 13 15 15 14 14 14 16 16 20 19 17 16 16 13 13 14 13 13 10 11 14 14 11 9 11 11 10
7 7 4 5 6 3 4 3 4 6 6 5 7 9 8 7 8 8 8 8 7 3 6 7 13 14 13 14 15 14 13 15 15 15 16 14 13 17 13 11 10 13 13 13 12 12 9 6 7 7 10 11 12 10
6 4 6 7 4 4 4 4 5 6 7 6 8 8 7 6 5 4 4 3 2 3 3 6 8 10 11 12 11 10 12 11 11 11 13 12 11 10 12 11 11 8 9 8 9 5 8 6 6 8 12 11 11 11
3 4 2 3 4 4 5 4 5 8 4 5 5 2 4 4 4 4 3 3 3 2 4 4 7 9 11 13 11 12 13 13 13 11 14 13 11 10 10 9 9 9 8 6 3 5 6 7 7 8 10 11 13 13
2 1 2 2 3 4 3 2 4 3 4 3 3 3 4 3 4 3 2 1 1 3 6 7 10 12 13 15 15 15 15 12 9 9 9 9 10 10 10 10 8 7 8 4 2 6 7 9 10 11 12 12 12 14
2 2 2 2 3 4 2 3 2 3 3 3 3 4 4 3 3 1 2 1 3 8 8 10 8 9 8 9 8 6 4 3 5 7 7 8 9 10 7 8 6 2 5 6 5 5 9 10 16 13 13 14 12 14
3 4 4 5 3 3 4 3 3 3 4 3 3 4 3 4 2 2 3 5 8 9 10 10 8 6 6 6 5 7 7 6 7 10 11 8 7 6 2 5 6 8 5 7 7 8 10 13 14 15 15 12 17 18
3 4 4 2 1 2 3 3 3 3 3 3 3 6 5 4 4 4 4 6 5 9 11 10 8 7 6 6 6 5 8 6 7 6 6 6 6 2 5 6 6 4 6 6 7 9 13 15 15 17 16 14 13 17
3 2 4 3 3 4 4 5 4 2 3 4 5 5 6 7 6 4 4 3 8 11 11 8 9 8 8 8 8 9 8 6 8 6 7 6 4 9 8 5 8 5 7 7 7 15 16 15 17 18 17 16 16 14
4 3 4 5 5 2 4 4 5 6 4 6 6 8 5 7 3 4 3 9 11 9 8 8 9 8 8 8 7 9 10 10 10 7 6 6 11 11 10 8 7 9 7 9 8 9 12 12 14 16 17 17 16 17
5 3 2 2 3 3 5 5 4 3 2 3 3 4 3 1 1 4 6 9 8 7 10 10 11 10 10 10 8 8 9 10 14 17 17 11 9 9 8 6 7 7 6 7 9 6 4 11 15 15 16 12 12 12
3 2 2 5 6 5 4 3 5 4 3 3 2 2 2 2 1 5 7 9 10 9 8 8 8 10 11 11 10 12 8 9 8 7 7 8 10 9 9 8 9 9 8 7 8 4 5 7 11 15 15 14 13 14
1 3 2 2 4 5 4 3 1 1 2 3 3 1 2 3 2 5 9 9 8 10 12 11 11 11 11 11 10 10 10 10 14 13 10 7 7 8 9 8 7 10 10 9 8 4 6 10 10 15 16 17 17 15
2 3 3 4 3 5 2 2 2 1 0 3 4 2 2 2 4 4 6 9 11 10 12 11 10 11 9 8 8 6 6 6 10 10 12 8 8 8 7 7 8 9 13 10 7 8 12 10 8 12 14 18 17 18
3 2 3 2 1 2 2 3 2 1 2 3 4 5 5 4 4 4 7 6 7 8 9 11 11 8 4 10 10 8 8 6 7 7 8 8 9 10 6 7 7 10 15 12 10 11 14 17 12 10 14 16 17 18
Wind_Direction
199 200 199 196 196 195 193 193 190 195 200 206 233 267 312 346 336 309 72 36 296 285 273 213 275 264 248 262 270 84 231 197 230 246 251 251 252 255 252 249 254 208 199 223 232 247 246 341 285 236 65 89 34 9
198 198 195 192 191 186 185 177 176 177 186 208 217 240 255 294 313 320 260 127 284 264 305 358 293 294 292 299 306 186 287 292 330 274 245 280 266 262 263 265 225 245 262 274 276 285 4 29 47 83 81 153 306 318
204 201 196 189 178 173 161 163 164 174 210 211 210 222 230 248 279 294 321 20 250 256 259 227 235 224 222 246 257 276 244 286 268 309 305 290 276 290 272 262 266 265 276 268 274 271 210 227 262 184 253 267 314 310
193 181 161 148 148 149 151 154 170 190 190 194 206 219 221 242 255 284 280 47 283 289 278 124 120 222 221 224 226 239 271 290 296 264 256 260 266 264 263 279 278 281 301 281 267 268 281 285 215 265 347 316 290 293
133 130 128 132 137 148 160 168 163 163 177 199 192 182 199 222 248 263 266 278 278 296 325 341 292 200 195 233 232 231 237 241 250 244 245 252 263 268 267 275 270 263 261 264 265 278 297 291 310 306 298 299 297 295
119 124 129 137 145 150 151 154 169 176 186 167 173 182 191 189 227 252 220 138 271 275 276 275 64 211 208 221 244 225 227 234 248 258 254 258 263 272 273 268 269 263 249 252 269 278 276 280 284 283 285 284 284 287
119 125 133 137 137 144 149 152 164 167 162 171 181 198 205 216 248 310 12 12 334 271 267 272 245 157 224 210 212 218 215 234 237 248 248 257 262 252 252 255 262 269 278 280 283 285 269 266 268 271 271 272 278 278
114 120 126 130 134 140 163 167 150 150 155 164 166 183 183 202 264 245 174 188 284 285 275 264 263 212 169 219 219 195 227 224 224 251 256 263 268 244 247 257 266 266 269 269 270 269 270 272 268 269 269 268 270 269
122 131 141 150 148 141 140 144 145 144 150 150 162 161 167 224 228 104 143 168 223 281 285 270 274 334 179 236 271 275 242 255 254 243 243 241 248 254 263 263 264 265 263 261 258 257 260 260 259 261 262 259 260 264
116 121 127 135 136 142 149 147 146 148 165 167 196 206 205 102 119 149 155 199 203 212 221 257 272 267 265 275 266 247 240 257 255 262 259 243 246 250 256 257 255 259 258 268 274 272 268 266 261 258 262 262 265 267
119 124 134 142 148 150 153 155 155 148 167 207 216 209 98 148 187 225 223 204 188 227 213 228 252 274 205 248 283 203 275 258 265 259 248 256 264 260 260 270 257 289 288 279 274 269 264 262 265 267 266 265 258 265
110 120 129 130 138 163 168 176 179 208 12 9 329 180 150 198 223 235 219 210 200 244 175 216 191 220 278 310 275 297 271 255 255 281 271 268 298 1 350 23 321 291 339 306 292 302 285 280 292 292 294 293 285 269
108 124 132 135 135 138 171 179 197 339 258 216 230 213 196 203 260 225 211 194 234 203 218 183 71 2 318 331 275 256 238 247 258 256 253 261 127 131 205 275 287 302 309 299 292 247 248 271 253 269 272 269 271 268
84 121 131 138 146 147 148 180 186 220 256 237 207 228 220 207 231 236 262 348 239 231 201 165 188 206 223 231 252 234 247 274 253 252 262 349 313 298 278 278 294 304 314 306 300 290 303 280 280 275 263 261 265 269
90 105 126 131 155 177 185 181 194 221 267 247 224 237 217 239 239 218 225 253 253 253 261 243 269 235 215 239 219 268 250 243 247 274 322 0 305 289 292 295 290 286 291 281 286 296 287 281 274 272 262 262 247 245
93 297 75 56 111 144 178 188 188 220 243 237 230 236 262 258 243 239 224 236 234 240 212 218 259 221 222 225 219 220 245 255 280 339 245 304 338 326 319 311 301 301 296 298 280 277 276 261 262 256 260 248 249 205
276 136 109 87 114 163 287 251 200 228 253 238 240 236 268 290 286 269 249 271 199 231 235 232 237 234 260 237 238 244 259 296 319 312 334 324 311 322 316 302 302 307 315 298 285 282 279 259 249 231 240 238 233 166
239 133 122 68 282 219 211 240 282 256 246 245 258 263 255 256 264 269 281 286 273 264 262 253 263 258 256 270 272 282 303 304 328 322 306 316 321 311 302 310 309 304 285 281 280 277 273 261 251 235 227 231 139 132
4 54 150 202 291 303 211 196 233 265 254 265 274 277 281 278 274 277 272 264 259 267 272 240 245 243 249 264 277 285 290 307 305 302 306 300 304 306 314 310 304 296 289 283 276 268 260 230 233 216 190 150 140 142
289 279 247 215 229 266 261 214 195 261 272 303 295 273 270 269 289 287 283 279 279 244 229 237 243 261 284 288 297 303 297 297 301 295 293 299 305 303 295 303 294 293 289 286 279 252 237 221 219 154 128 137 136 140
197 118 151 188 214 264 270 285 239 236 274 289 334 343 306 316 288 277 269 245 169 214 256 249 275 287 287 291 293 290 285 285 278 277 283 288 292 299 293 286 283 285 282 275 262 189 137 134 124 128 134 140 139 134
101 150 203 194 245 226 250 243 284 334 291 289 301 227 260 263 248 229 191 181 215 169 228 246 267 282 281 281 279 273 269 270 271 273 272 274 278 283 288 291 297 295 289 300 290 93 113 115 117 124 123 121 121 125
218 243 282 258 240 236 256 355 258 247 269 279 276 252 229 237 239 275 263 51 44 261 311 302 297 294 283 283 281 277 268 253 261 263 265 268 271 274 278 280 276 267 280 281 346 133 125 120 118 115 106 113 129 134
67 239 227 248 245 277 289 242 236 257 262 252 251 265 279 269 289 281 304 0 324 323 311 303 295 295 296 298 295 286 352 348 288 278 270 272 280 284 276 269 261 284 84 82 86 112 135 128 121 117 120 130 142 132
233 182 220 235 206 246 254 238 235 253 266 282 277 287 299 301 331 10 9 336 322 327 324 321 315 301 291 301 8 16 353 318 307 299 297 291 272 274 321 56 43 31 70 105 97 105 124 127 121 125 129 145 135 135
262 175 218 296 253 224 311 308 306 316 300 300 290 321 302 339 29 8 338 312 311 318 318 315 311 308 17 8 336 311 288 279 271 280 279 301 314 72 63 68 65 18 64 92 89 111 121 113 119 131 135 120 109 123
272 190 187 220 262 261 253 228 234 257 304 333 332 321 357 7 3 338 307 319 317 320 319 331 355 3 357 348 345 340 333 333 305 299 293 295 50 58 54 53 78 50 64 82 80 103 111 118 119 121 124 124 126 133
239 246 258 151 231 234 304 344 35 21 344 338 337 23 17 355 331 326 300 303 319 321 334 351 358 349 342 340 343 346 354 348 329 262 269 64 86 75 69 67 75 77 55 62 74 86 107 112 121 131 134 134 139 146
228 199 264 272 132 97 33 45 45 85 326 5 12 10 2 328 278 324 324 329 329 345 2 353 353 351 360 359 5 6 10 7 11 20 35 33 39 87 100 82 86 82 80 81 53 70 86 129 126 121 115 111 109 114
117 184 284 44 37 66 68 53 88 121 137 100 120 253 254 171 32 1 352 351 355 355 349 341 346 1 358 354 347 0 20 18 11 360 357 358 342 349 91 107 117 104 97 96 97 64 356 117 123 133 134 134 137 135
265 237 258 83 74 74 94 97 154 147 144 174 182 217 16 60 60 11 8 352 353 356 0 355 356 356 359 0 357 351 352 1 355 356 354 337 346 359 50 76 87 109 110 108 103 87 98 117 133 133 138 134 139 151
276 8 336 340 72 98 190 322 7 42 10 28 34 36 152 114 44 10 14 359 359 354 353 347 343 345 354 349 348 345 317 341 360 355 355 352 353 359 54 68 89 101 106 96 102 104 99 91 102 126 132 142 143 137
252 267 280 287 260 246 116 303 237 146 56 36 45 15 47 44 23 355 350 22 359 342 341 337 330 335 38 4 356 344 344 357 0 358 359 359 5 359 32 78 92 108 114 114 104 108 115 118 110 101 126 127 131 138